McKean County Weather on FaceBook
Temperatures and Conditions from around the state of pennsylvania

NOAA NWS Hourly Roundups by Site

Regional Weather Roundup for State College, PA

To Select Another Site Choose from List

Select Site:  

111
ASUS41 KCTP 262003
RWRCTP

REGIONAL WEATHER ROUNDUP
NATIONAL WEATHER SERVICE STATE COLLEGE PA
400 PM EDT SUN MAY 26 2019

Note: "fair" indicates few or no clouds below 12,000 feet with no
significant weather and/or obstructions to visibility.

* = STATION THAT DOES NOT REPORT PRECIPITATION /E.G. RAIN...SNOW...ETC/
    THUNDER OR FOG.

PAZ002>004-007>009-013>016-020>023-029>032-262100-
WESTERN PENNSYLVANIA

CITY           SKY/WX    TMP DP  RH WIND       PRES   REMARKS
ERIE           PTSUNNY   68  61  78 W9        30.02R
MEADVILLE      LGT RAIN  70  64  81 NW7       30.02R
FRANKLIN*      FAIR      74  62  66 W10       30.03R
NEW CASTLE     CLOUDY    74  67  78 SW6       30.02F
BEAVER COUNTY  NOT AVBL
BUTLER*        LGT RAIN  73  65  75 W5        30.02S
PITTSBURGH INT CLOUDY    78  63  59 W8        30.01R
PITTSBURGH     PTSUNNY   77  61  57 SW8       30.00F
INDIANA*       MOSUNNY   77  63  61 NW8       30.05S
LATROBE        PTSUNNY   77  64  65 SW12      30.02F
WASHINGTON CO* FAIR      79  66  64 W10       30.03F
$$

PAZ004>006-010>012-017>019-024>028-033>037-041-042-045-046-049>053-262100-
CENTRAL PENNSYLVANIA

CITY           SKY/WX    TMP DP  RH WIND       PRES   REMARKS
BRADFORD       CLOUDY    72  63  73 NW9       30.01S
DUBOIS         FAIR      75  63  66 SW13      30.00F
CLEARFIELD     PTSUNNY   78  64  61 W12       29.99F
JOHNSTOWN      FAIR      75  61  61 W7        30.04F
ALTOONA        FAIR      80  60  50 W15G22    30.01F
STATE COLLEGE  PTSUNNY   75  68  78 N5        29.98F
WILLIAMSPORT   FAIR      72  63  73 N3        29.94F
SELINSGROVE    CLOUDY    73  64  73 W6        29.95F
FT INDIANTOWN  PTSUNNY   84  68  59 SW9       29.92F
CAPITAL CITY   FAIR      83  65  54 W9        29.93F
HARRISBURG     PTSUNNY   81  65  58 W12G21    29.92F
YORK           FAIR      78  64  61 VRB5      29.95F
$$

PAZ038>040-043-044-047-048-054-055-060>062-067>071-262100-
EASTERN PENNSYLVANIA

CITY           SKY/WX    TMP DP  RH WIND       PRES   REMARKS
SCRANTON       LGT RAIN  73  64  73 W18G25    29.94R
MOUNT POCONO   LGT RAIN  74  63  68 W16       29.96S
ALLENTOWN      FAIR      86  64  47 W13       29.90F
QUAKERTOWN*    MOCLDY    77  68  73 SW9       29.93R HAZE
READING        PTSUNNY   76  70  82 NW7       29.91F
LANCASTER      FAIR      85  65  51 W15       29.92F
COATESVILLE    FAIR      82  68  61 W9G16     29.94F
POTTSTOWN      TSTM      77  64  64 VRB6G24   29.95R
BLUE BELL      PTSUNNY   85  64  49 SW12G18   29.90F
DOYLESTOWN     FAIR      83  62  49 VRB6      29.89F
WILLOW GROVE   NOT AVBL
NORTH PHILA    FAIR      87  62  43 W10       29.91F
PHILADELPHIA   PTSUNNY   86  64  47 SW9       29.90F
$$



 

View Past Reports for State College, PA.

Products Courtesy of NOAA-NWS
NWS Information Parsing Script by Ken True at Saratoga Weather - Script by SE Lincoln Weather.